Location: Boiro
(42.6475°N, 8.8834°W)
Time: 18:13:13
(UTC+01:00)

Explorer 7 - Pass Details

Date: 07 December 2021
Orbit: 483 x 674 km, 50.3° (Epoch: 20 January)

Event Time Altitude Azimuth Distance (km) Brightness Sun altitude
Rises 04:41:09 0° 199° (SSW) 2,923 - -45.2°
Reaches altitude 10° 04:43:58 10° 183° (S) 1,986 - -44.7°
Maximum altitude 04:47:23 21° 134° (SE) 1,361 - -44.1°
Drops below altitude 10° 04:50:41 10° 85° (E) 1,904 - -43.5°
Exits shadow 04:52:12 - 75° (ENE) 2,384 10.8 -43.2°
Sets 04:53:18 0° 69° (ENE) 2,766 11.2 -43.0°
